Simultaneous Nadir Overpasses (SNOs) Predictions

Prediction of SNOs between GOES-15 and TERRA Satellite Orbit:

Table of predicted SNOs for the next 14.0 days since TLE Epoch: 6/16/2022
Index Date Time (GOES-15) GOES-15 Lat,Lon TERRA Lat,Lon Distance(km) Time Diff (sec)
1 06/16/2022 07:06:57 0.16,-128.35 -0.51,-131.63 372.14 80
2 06/18/2022 06:54:42 0.17,-128.38 0.10,-128.67 33.66 80
3 06/20/2022 06:39:47 0.19,-128.40 0.73,-125.71 304.94 80
4 06/20/2022 19:03:41 -0.16,-128.44 0.34,-130.88 276.52 80
5 06/22/2022 18:48:47 -0.17,-128.47 -0.29,-127.92 62.32 80
6 06/24/2022 18:36:32 -0.17,-128.49 -0.94,-124.97 400.89 80
7 06/25/2022 07:00:33 0.14,-128.47 -0.23,-130.15 191.83 80
8 06/27/2022 06:45:38 0.15,-128.48 0.43,-127.20 145.87 80
9 06/27/2022 19:09:32 -0.12,-128.51 0.69,-132.35 436.53 80
10 06/29/2022 06:33:22 0.16,-128.49 1.05,-124.24 483.05 80
11 06/29/2022 18:57:16 -0.13,-128.52 0.08,-129.39 99.38 80
